Location: Newark
(7.0858°N, 171.3717°E)
Time: 19:58:54
(UTC+00:00)

N. Korean satellite - Visible Passes

Search period start: 26 September 2021 00:00
Search period end: 06 October 2021 00:00
Orbit: 449 x 498 km, 97.3° (Epoch: 26 September)

Date Brightness Start Highest point End Pass type
(mag) Time Alt. Az. Time Alt. Az. Time Alt. Az.
26 Sep 7.3 17:21:17 10° NNE 17:24:50 56° ESE 17:28:25 10° S visible
27 Sep 9.4 16:54:25 10° NE 16:57:05 19° E 16:59:45 10° SSE visible
28 Sep 7.4 17:59:06 10° NNW 18:02:19 30° WNW 18:05:33 10° SW visible
29 Sep 6.6 17:30:57 10° NNE 17:34:35 86° ESE 17:38:14 10° S visible
30 Sep 8.8 17:03:40 10° NE 17:06:48 27° E 17:09:57 10° SSE visible
01 Oct 10.3 16:38:53 10° E 16:39:01 10° E 16:39:08 10° ESE visible
02 Oct 6.5 17:40:38 10° N 17:44:13 63° W 17:47:50 10° SSW visible
03 Oct 8.0 17:12:59 10° NNE 17:16:25 40° E 17:19:52 10° S visible
04 Oct 9.9 16:46:32 10° ENE 16:48:36 14° E 16:50:39 10° SE visible
05 Oct 7.0 17:50:18 10° N 17:53:46 42° WNW 17:57:14 10° SSW visible
